Location: Spruce Knob
(38.6995°N, 79.5330°W)
Time: 22:12:56
(UTC-05:00)

S-56A Canister/Altair - Visible Passes

Search period start: 27 January 2022 00:00
Search period end: 06 February 2022 00:00
Orbit: 634 x 2499 km, 38.9° (Epoch: 26 January)

Date Brightness Start Highest point End Pass type
(mag) Time Alt. Az. Time Alt. Az. Time Alt. Az.
27 Jan 9.2 06:19:36 10° SSW 06:23:15 25° SSE 06:27:06 10° E visible
28 Jan 9.4 05:47:26 10° SSW 05:50:50 21° SSE 05:54:15 10° E visible
29 Jan 9.5 05:15:49 12° S 05:18:24 18° SSE 05:21:24 10° ESE visible
30 Jan 9.6 04:45:27 15° SSE 04:45:57 15° SSE 04:48:31 10° ESE visible
30 Jan 7.7 06:44:39 10° WSW 06:49:02 58° SSE 06:53:42 10° E visible
31 Jan 10.1 04:14:59 11° SE 04:14:59 11° SE 04:15:34 10° ESE visible
31 Jan 7.8 06:12:26 11° SW 06:16:36 51° SSE 06:21:02 10° E visible
01 Feb 7.9 05:41:51 24° SW 05:44:10 45° SSE 05:48:26 10° E visible
02 Feb 8.1 05:11:12 38° S 05:11:44 40° SSE 05:15:53 10° E visible
03 Feb 8.8 04:40:30 30° ESE 04:40:30 30° ESE 04:43:22 10° E visible
03 Feb 7.1 06:38:07 10° W 06:42:41 87° S 06:47:17 10° E visible
04 Feb 9.8 04:09:44 17° E 04:09:44 17° E 04:10:53 10° E visible
04 Feb 7.1 06:07:10 21° WSW 06:10:13 83° S 06:14:42 10° E visible
05 Feb 7.1 05:36:21 45° WSW 05:37:46 78° SSE 05:42:11 10° E visible
